Orr, MN

1:44 AM CST on February 22, 2018 (GMT -0600)
Orr Regional

Weather History for KORB - October, 2013

Change the Weather History Date:

Monday, October 21, 2013

  Actual Average Record
Temperature  
Mean Temperature 30 °F -  
Max Temperature 35 °F 45 °F 64 °F (2017)
Min Temperature 24 °F 30 °F 19 °F (2000)
Degree Days  
Heating Degree Days 36    
Moisture  
Dew Point 26 °F    
Average Humidity 84    
Maximum Humidity 93    
Minimum Humidity 75    
Precipitation  
Precipitation 0.01 in - - ()
Sea Level Pressure  
Sea Level Pressure 29.76 in    
Wind  
Wind Speed 9 mph (WNW)    
Max Wind Speed 14 mph    
Max Gust Speed 21 mph    
Visibility 9 miles    
Events Snow    
Averages and records for this station are not official NWS values.
T = Trace of Precipitation, MM = Missing Value Source: NWS Daily Summary

Daily Weather History Graph

Daily Weather History Graph

Search for Another Location

Airport or City:

Trip Planner

Search our weather history database for the weather conditions in past years. The results will help you decide how hot, cold, wet, or windy it might be!

Date:

Astronomy

Oct. 21, 2013 Rise Set
Actual Time 7:40 AM CDT 6:11 PM CDT
Civil Twilight 7:08 AM CDT 6:42 PM CDT
Nautical Twilight 6:32 AM CDT 7:18 PM CDT
Astronomical Twilight 5:56 AM CDT 7:54 PM CDT
Moon 7:53 PM CDT (10/21) 10:26 AM CDT (10/21)
Length of Visible Light 11h 34m
Length of Day
10h 31m
Waning Gibbous, 92% of the Moon is Illuminated
Oct 21
Waning Gibbous
Oct 26
Last Quarter
Nov 3
New
Nov 9
First Quarter
Nov 17
Full

Hourly Weather History & Observations

Time (CDT) Temp. Windchill Dew Point Humidity Pressure Visibility Wind Dir Wind Speed Gust Speed Precip Events Conditions
12:13 AM 30.2 °F 21.9 °F 26.6 °F 86% 29.75 in 10.0 mi WNW 9.2 mph - N/A   Mostly Cloudy
12:33 AM 30.2 °F 21.3 °F 26.6 °F 86% 29.75 in 10.0 mi WNW 10.4 mph 16.1 mph N/A   Scattered Clouds
12:53 AM 30.2 °F 20.8 °F 26.6 °F 86% 29.75 in 10.0 mi West 11.5 mph 16.1 mph N/A   Mostly Cloudy
1:13 AM 30.2 °F 20.8 °F 26.6 °F 86% 29.75 in 10.0 mi WNW 11.5 mph 20.7 mph N/A   Overcast
1:33 AM 30.2 °F 20.8 °F 24.8 °F 80% 29.75 in 10.0 mi WNW 11.5 mph 19.6 mph N/A   Mostly Cloudy
1:53 AM 30.2 °F 22.6 °F 26.6 °F 86% 29.76 in 10.0 mi WNW 8.1 mph - N/A Snow Light Snow
2:13 AM 30.2 °F 20.8 °F 24.8 °F 80% 29.76 in 10.0 mi WNW 11.5 mph 19.6 mph N/A   Overcast
2:33 AM 28.4 °F 18.5 °F 24.8 °F 86% 29.76 in 10.0 mi WNW 11.5 mph 16.1 mph N/A   Overcast
2:53 AM 28.4 °F 19.7 °F 24.8 °F 86% 29.76 in 10.0 mi West 9.2 mph 16.1 mph N/A   Overcast
3:13 AM 28.4 °F 20.4 °F 24.8 °F 86% 29.76 in 10.0 mi West 8.1 mph 16.1 mph N/A   Overcast
3:33 AM 28.4 °F 19.1 °F 24.8 °F 86% 29.76 in 10.0 mi West 10.4 mph 17.3 mph N/A Snow Light Snow
3:53 AM 28.4 °F 18.5 °F 24.8 °F 86% 29.76 in 10.0 mi West 11.5 mph 16.1 mph N/A Snow Light Snow
4:13 AM 28.4 °F 19.7 °F 23.0 °F 80% 29.76 in 10.0 mi WNW 9.2 mph 16.1 mph N/A   Overcast
4:33 AM 26.6 °F 18.2 °F 23.0 °F 86% 29.76 in 10.0 mi West 8.1 mph 16.1 mph N/A   Overcast
4:53 AM 26.6 °F 20.0 °F 21.2 °F 80% 29.76 in 10.0 mi West 5.8 mph - N/A   Mostly Cloudy
5:13 AM 26.6 °F 17.5 °F 21.2 °F 80% 29.76 in 10.0 mi West 9.2 mph - N/A   Mostly Cloudy
5:33 AM 26.6 °F 19.1 °F 21.2 °F 80% 29.76 in 10.0 mi West 6.9 mph 16.1 mph N/A   Mostly Cloudy
5:53 AM 26.6 °F 18.2 °F 21.2 °F 80% 29.75 in 10.0 mi West 8.1 mph - N/A   Mostly Cloudy
6:13 AM 24.8 °F 17.9 °F 21.2 °F 86% 29.75 in 10.0 mi West 5.8 mph - N/A   Overcast
6:33 AM 24.8 °F 16.1 °F 21.2 °F 86% 29.75 in 10.0 mi West 8.1 mph - N/A   Overcast
6:53 AM 26.6 °F 19.1 °F 21.2 °F 80% 29.75 in 10.0 mi West 6.9 mph - N/A   Overcast
7:13 AM 26.6 °F 18.2 °F 21.2 °F 80% 29.75 in 10.0 mi West 8.1 mph - N/A   Overcast
7:33 AM 26.6 °F 20.0 °F 21.2 °F 80% 29.75 in 10.0 mi West 5.8 mph - N/A   Overcast
7:53 AM 26.6 °F 17.5 °F 21.2 °F 80% 29.74 in 10.0 mi West 9.2 mph - N/A   Overcast
8:13 AM 26.6 °F 17.5 °F 21.2 °F 80% 29.74 in 10.0 mi West 9.2 mph - N/A Snow Light Snow
8:33 AM 26.6 °F 18.2 °F 21.2 °F 80% 29.74 in 4.0 mi West 8.1 mph - N/A Snow Light Snow
8:53 AM 26.6 °F 18.2 °F 23.0 °F 86% 29.74 in 2.5 mi West 8.1 mph - N/A Snow Light Snow
9:13 AM 26.6 °F 17.5 °F 23.0 °F 86% 29.74 in 10.0 mi West 9.2 mph - N/A   Overcast
9:33 AM 28.4 °F 20.4 °F 23.0 °F 80% 29.74 in 10.0 mi West 8.1 mph - N/A   Overcast
9:53 AM 28.4 °F 20.4 °F 23.0 °F 80% 29.74 in 10.0 mi West 8.1 mph - N/A   Overcast
10:13 AM 28.4 °F 19.1 °F 24.8 °F 86% 29.74 in 10.0 mi West 10.4 mph - N/A   Overcast
10:33 AM 28.4 °F 19.1 °F 23.0 °F 80% 29.74 in 10.0 mi WNW 10.4 mph 17.3 mph N/A   Overcast
10:53 AM 28.4 °F 19.7 °F 24.8 °F 86% 29.74 in 4.0 mi WNW 9.2 mph 17.3 mph N/A   Haze
11:13 AM 28.4 °F 20.4 °F 24.8 °F 86% 29.74 in 7.0 mi West 8.1 mph - N/A   Overcast
11:33 AM 30.2 °F 21.9 °F 24.8 °F 80% 29.74 in 10.0 mi West 9.2 mph - N/A   Overcast
11:53 AM 30.2 °F 22.6 °F 26.6 °F 86% 29.73 in 10.0 mi WNW 8.1 mph - N/A   Overcast
12:13 PM 30.2 °F 20.8 °F 24.8 °F 80% 29.73 in 10.0 mi WNW 11.5 mph 16.1 mph N/A   Overcast
12:33 PM 30.2 °F 21.3 °F 24.8 °F 80% 29.73 in 10.0 mi WNW 10.4 mph - N/A Snow Light Snow
12:53 PM 30.2 °F 20.2 °F 26.6 °F 86% 29.73 in 4.0 mi WNW 12.7 mph - N/A Snow Light Snow
1:13 PM 32.0 °F 25.6 °F 26.6 °F 80% 29.72 in 10.0 mi West 6.9 mph - N/A   Overcast
1:33 PM 32.0 °F 24.2 °F 26.6 °F 80% 29.72 in 10.0 mi West 9.2 mph - N/A   Overcast
1:53 PM 33.8 °F 27.0 °F 26.6 °F 75% 29.71 in 10.0 mi West 8.1 mph 17.3 mph N/A   Overcast
2:13 PM 32.0 °F 23.0 °F 26.6 °F 80% 29.71 in 3.0 mi WNW 11.5 mph - N/A Snow Light Snow
2:33 PM 32.0 °F 24.8 °F 28.4 °F 87% 29.71 in 3.0 mi West 8.1 mph - N/A Snow Light Snow
2:53 PM 32.0 °F 22.5 °F 28.4 °F 87% 29.71 in 5.0 mi WNW 12.7 mph 18.4 mph N/A Snow Light Snow
3:13 PM 33.8 °F 25.3 °F 28.4 °F 81% 29.71 in 7.0 mi WNW 11.5 mph 19.6 mph N/A   Overcast
3:33 PM 33.8 °F 25.8 °F 28.4 °F 81% 29.72 in 5.0 mi WNW 10.4 mph 17.3 mph N/A   Haze
3:53 PM 33.8 °F 24.8 °F 28.4 °F 81% 29.72 in 10.0 mi WNW 12.7 mph 18.4 mph N/A   Overcast
4:13 PM 33.8 °F 24.3 °F 30.2 °F 87% 29.72 in 10.0 mi WNW 13.8 mph 20.7 mph N/A   Overcast
4:33 PM 35.6 °F 27.5 °F 30.2 °F 81% 29.73 in 7.0 mi WNW 11.5 mph 17.3 mph N/A Snow Light Snow
4:53 PM 33.8 °F 25.8 °F 30.2 °F 87% 29.74 in 10.0 mi WNW 10.4 mph - N/A   Overcast
5:13 PM 33.8 °F 25.8 °F 30.2 °F 87% 29.75 in 4.0 mi WNW 10.4 mph - N/A Snow Light Snow
5:33 PM 33.8 °F 25.8 °F 30.2 °F 87% 29.76 in 7.0 mi NW 10.4 mph 17.3 mph N/A Snow Light Snow
5:53 PM 35.6 °F 27.5 °F 32.0 °F 87% 29.77 in 10.0 mi WNW 11.5 mph - N/A   Overcast
6:13 PM 33.8 °F 27.7 °F 32.0 °F 93% 29.77 in 10.0 mi WNW 6.9 mph - N/A   Overcast
6:33 PM 33.8 °F 26.4 °F 30.2 °F 87% 29.78 in 10.0 mi NW 9.2 mph - N/A   Overcast
6:53 PM 33.8 °F 26.4 °F 30.2 °F 87% 29.79 in 10.0 mi NW 9.2 mph - N/A   Overcast
7:13 PM 33.8 °F 27.7 °F 30.2 °F 87% 29.80 in 10.0 mi NW 6.9 mph - N/A   Overcast
7:33 PM 32.0 °F 26.4 °F 30.2 °F 93% 29.80 in 2.0 mi NW 5.8 mph - 0.01 in Snow Light Snow
7:53 PM 33.8 °F 27.0 °F 30.2 °F 87% 29.81 in 10.0 mi NW 8.1 mph - 0.01 in   Overcast
8:13 PM 33.8 °F 27.0 °F 30.2 °F 87% 29.81 in 10.0 mi NW 8.1 mph - N/A   Overcast
8:33 PM 33.8 °F 27.7 °F 30.2 °F 87% 29.82 in 10.0 mi NW 6.9 mph - N/A   Overcast
8:53 PM 33.8 °F 26.4 °F 30.2 °F 87% 29.82 in 5.0 mi NW 9.2 mph - N/A Snow Light Snow
9:13 PM 33.8 °F 27.0 °F 30.2 °F 87% 29.83 in 10.0 mi NW 8.1 mph - N/A   Overcast
9:33 PM 33.8 °F 29.6 °F 30.2 °F 87% 29.83 in 10.0 mi NW 4.6 mph - N/A   Unknown
9:53 PM 33.8 °F 28.6 °F 30.2 °F 87% 29.83 in 10.0 mi NW 5.8 mph - N/A   Overcast
10:13 PM 33.8 °F 28.6 °F 30.2 °F 87% 29.84 in 10.0 mi NW 5.8 mph - N/A   Overcast
10:33 PM 33.8 °F 28.6 °F 30.2 °F 87% 29.84 in 10.0 mi NW 5.8 mph - N/A   Overcast
10:53 PM 33.8 °F 28.6 °F 30.2 °F 87% 29.84 in 10.0 mi NNW 5.8 mph - N/A   Overcast
11:13 PM 33.8 °F - 30.2 °F 87% 29.84 in 10.0 mi Calm Calm - N/A   Overcast
11:33 PM 33.8 °F - 30.2 °F 87% 29.85 in 10.0 mi Calm Calm - N/A   Overcast
11:53 PM 32.0 °F - 28.4 °F 87% 29.85 in 10.0 mi Calm Calm - N/A   Overcast